Back to catalog

STARLINK-3884

AliveCommunicationsVLEO
NORAD 52497·PAYLOAD·🇺🇸 United States

Launched May 6, 2022 from Cape Canaveral Space Force Station

Loading…

Next Passes (next 24 hours)

TLE

FreshSource: CelesTrak SupGP

Epoch: Sep 14, 2026, 21:30 UTC

1 52497C 22049AY  26257.89631944  .00048456  00000+0  14705-2 0  2572
2 52497  53.1580 270.2515 0001204  84.9828 311.9484 15.33521855    18

Track STARLINK-3884 in real time with AllMySat

Download on the App Store